Skip Page Navigation
NASA JPL Caltech
NASA Logo - Jet Propulsion Laboratory + View the NASA Portal
+ Center for Near-Earth Object Studies
JPL Home Earth Solar System Stars & Galaxies Technology
JPL Solar System Dynamics
BODIES ORBITS EPHEMERIDES TOOLS PHYSICAL DATA DISCOVERY FAQ SITE MAP
IMPORTANT: The SSD Announcement email list is now available. Major changes are coming in the near future, including possible hostname and/or URL changes. To be notified of such changes, subscribe to this email list.

Please visit this page for more details.


JPL Small-Body Database Browser
Search: [ help ]  
214690 (2006 SJ262)
Classification: Main-belt Asteroid          SPK-ID: 2214690
Ephemeris | Orbit Diagram | Orbital Elements | Mission Design | Physical Parameters | Discovery Circumstances | Close-Approach Data ]

[ show orbit diagram ]
Orbital Elements at Epoch 2458600.5 (2019-Apr-27.0) TDB
Reference: JPL 12 (heliocentric ecliptic J2000)
 Element Value Uncertainty (1-sigma)   Units 
e .117768277709235 4.4534e-08  
a 2.762883535626784 2.9367e-08 au
q 2.437503500124816 1.0918e-07 au
i 7.735923598813582 6.4661e-06 deg
node 197.1432381056416 3.8431e-05 deg
peri 50.55292593131299 5.1454e-05 deg
M 39.20800257888636 3.3575e-05 deg
tp 2458417.810111062115
(2018-Oct-26.31011106)
0.00015701 TDB
period 1677.421844821418
4.59
2.6744e-05
7.322e-08
d
yr
n .2146150660380403 3.4217e-09 deg/d
Q 3.088263571128753 3.2825e-08 au
  Orbit Determination Parameters
   # obs. used (total)      335  
   data-arc span      6613 days (18.11 yr)  
   first obs. used      2001-09-20  
   last obs. used      2019-10-29  
   planetary ephem.      DE431  
   SB-pert. ephem.      SB431-N16  
   condition code      0  
   norm. resid. RMS      .51416  
   source      ORB  
   producer      Otto Matic  
   solution date      2019-Nov-07 23:55:16  

Additional Information
 Earth MOID = 1.43308 au 
 Jupiter MOID = 1.94022 au 
 T_jup = 3.317 
[ show covariance matrix ]

Ephemeris | Orbit Diagram | Orbital Elements | Mission Design | Physical Parameters | Discovery Circumstances | Close-Approach Data ]

Physical Parameter Table
Parameter Symbol Value Units Sigma Reference Notes
absolute magnitude H 16.1   n/a MPO440133  

214690 (2006 SJ262)          Discovered 2006-Sep-26 by Mt. Lemmon Survey at Mount Lemmon
Reference: 20090509/Numbers.arcLast Updated: 2009-05-11

[ show close-approach data ]
Alternate Designations
 2006 SJ262 = 2001 SH102 = 2004 FB108 
Ephemeris | Orbit Diagram | Orbital Elements | Mission Design | Physical Parameters | Discovery Circumstances | Close-Approach Data ]
ABOUT SSD CREDITS/AWARDS PRIVACY/COPYRIGHT GLOSSARY LINKS
FirstGov 2019-Dec-13 21:50 UT
(server date/time)  
NASA Home Page
Site Manager:   Ryan S. Park
Webmaster  Alan B. Chamberlin